QPF
0.00 0.00 0.00 0.00 0.00 0.00 0.00 0.00 0.00 0.00 0.00 0.00 0.00 0.00 0.00 0.00 0.00 0.00 0.00 0.00 0.00 0.00 0.00 0.00 0.00 0.00 0.00 0.00 0.00 0.00 0.00 0.00 0.00 0.00 0.00 0.00 0.00 0.00 0.00 0.00 0.00 0.00 0.00 0.00
0.00 0.00 0.00 0.00 0.00 0.00 0.00 0.00 0.00 0.00 0.00 0.00 0.00 0.00 0.00 0.00 0.00 0.00 0.00 0.00 0.00 0.00 0.00 0.00 0.00 0.00 0.00 0.00 0.00 0.00 0.00 0.00 0.00 0.00 0.00 0.00 0.00 0.00 0.00 0.00 0.00 0.00 0.00 0.00
0.00 0.00 0.00 0.00 0.00 0.00 0.00 0.00 0.00 0.00 0.00 0.00 0.00 0.00 0.00 0.00 0.00 0.00 0.00 0.00 0.00 0.00 0.00 0.00 0.00 0.00 0.00 0.00 0.00 0.00 0.00 0.00 0.00 0.00 0.00 0.00 0.00 0.00 0.00 0.00 0.00 0.00 0.00 0.00
0.00 0.00 0.00 0.00 0.00 0.00 0.00 0.00 0.00 0.00 0.00 0.00 0.00 0.00 0.00 0.00 0.00 0.00 0.00 0.00 0.00 0.00 0.00 0.00 0.00 0.00 0.00 0.00 0.00 0.00 0.00 0.00 0.00 0.00 0.00 0.00 0.00 0.00 0.00 0.00 0.00 0.00 0.00 0.00
0.00 0.00 0.00 0.00 0.00 0.00 0.00 0.00 0.00 0.00 0.00 0.00 0.00 0.00 0.00 0.00 0.00 0.00 0.00 0.00 0.00 0.00 0.00 0.00 0.00 0.00 0.00 0.00 0.00 0.00 0.00 0.00 0.00 0.00 0.00 0.00 0.00 0.00 0.00 0.00 0.00 0.00 0.00 0.00
0.00 0.00 0.00 0.00 0.00 0.00 0.00 0.00 0.00 0.00 0.00 0.00 0.00 0.00 0.00 0.00 0.00 0.00 0.00 0.00 0.00 0.00 0.00 0.00 0.00 0.00 0.00 0.00 0.00 0.00 0.00 0.00 0.00 0.00 0.00 0.00 0.00 0.00 0.00 0.00 0.00 0.00 0.00 0.00
0.00 0.00 0.00 0.00 0.00 0.00 0.00 0.00 0.00 0.00 0.00 0.00 0.00 0.00 0.00 0.00 0.00 0.00 0.00 0.00 0.00 0.00 0.00 0.00 0.00 0.00 0.00 0.00 0.00 0.00 0.00 0.00 0.00 0.00 0.00 0.00 0.00 0.00 0.00 0.00 0.00 0.00 0.00 0.00
0.00 0.00 0.00 0.00 0.00 0.00 0.00 0.00 0.00 0.00 0.00 0.00 0.00 0.00 0.00 0.00 0.00 0.00 0.00 0.00 0.00 0.00 0.00 0.00 0.00 0.00 0.00 0.00 0.00 0.00 0.00 0.00 0.00 0.00 0.00 0.00 0.00 0.00 0.00 0.00 0.00 0.00 0.00 0.00
0.00 0.00 0.00 0.00 0.00 0.00 0.00 0.00 0.00 0.00 0.00 0.00 0.00 0.00 0.00 0.00 0.00 0.00 0.00 0.00 0.00 0.00 0.00 0.00 0.00 0.00 0.00 0.00 0.00 0.00 0.00 0.00 0.00 0.00 0.00 0.00 0.00 0.00 0.00 0.00 0.00 0.00 0.00 0.00
0.00 0.00 0.00 0.00 0.00 0.00 0.00 0.00 0.00 0.00 0.00 0.00 0.00 0.00 0.00 0.00 0.00 0.00 0.00 0.00 0.00 0.00 0.00 0.00 0.00 0.00 0.00 0.00 0.00 0.00 0.00 0.00 0.00 0.00 0.00 0.00 0.00 0.00 0.00 0.00 0.00 0.00 0.00 0.00
0.00 0.00 0.00 0.00 0.00 0.00 0.00 0.00 0.00 0.00 0.00 0.00 0.00 0.00 0.00 0.00 0.00 0.00 0.00 0.00 0.00 0.00 0.00 0.00 0.00 0.00 0.00 0.00 0.00 0.00 0.00 0.00 0.00 0.00 0.00 0.00 0.00 0.00 0.00 0.00 0.00 0.00 0.00 0.00
0.00 0.00 0.00 0.00 0.00 0.00 0.00 0.00 0.00 0.00 0.00 0.00 0.00 0.00 0.00 0.00 0.00 0.00 0.00 0.00 0.00 0.00 0.00 0.00 0.00 0.00 0.00 0.00 0.00 0.00 0.00 0.00 0.00 0.00 0.00 0.00 0.00 0.00 0.00 0.00 0.00 0.00 0.00 0.00
0.00 0.00 0.00 0.00 0.00 0.00 0.00 0.00 0.00 0.00 0.00 0.00 0.00 0.00 0.00 0.00 0.00 0.00 0.00 0.00 0.00 0.00 0.00 0.00 0.00 0.00 0.00 0.00 0.00 0.00 0.00 0.00 0.00 0.00 0.00 0.00 0.00 0.00 0.00 0.00 0.00 0.00 0.00 0.00
0.00 0.00 0.00 0.00 0.00 0.00 0.00 0.00 0.00 0.00 0.00 0.00 0.00 0.00 0.00 0.00 0.00 0.00 0.00 0.00 0.00 0.00 0.00 0.00 0.00 0.00 0.00 0.00 0.00 0.00 0.00 0.00 0.00 0.00 0.00 0.00 0.00 0.00 0.00 0.00 0.00 0.00 0.00 0.00
0.00 0.00 0.00 0.00 0.00 0.00 0.00 0.00 0.00 0.00 0.00 0.00 0.00 0.00 0.00 0.00 0.00 0.00 0.00 0.00 0.00 0.00 0.00 0.00 0.00 0.00 0.00 0.00 0.00 0.00 0.00 0.00 0.00 0.00 0.00 0.00 0.00 0.00 0.00 0.00 0.00 0.00 0.00 0.00
0.00 0.00 0.00 0.00 0.00 0.00 0.00 0.00 0.00 0.00 0.00 0.00 0.00 0.00 0.00 0.00 0.00 0.00 0.00 0.00 0.00 0.00 0.00 0.00 0.00 0.00 0.00 0.00 0.00 0.00 0.00 0.00 0.00 0.00 0.00 0.00 0.00 0.00 0.00 0.00 0.00 0.00 0.00 0.00
0.00 0.00 0.00 0.00 0.00 0.00 0.00 0.00 0.00 0.00 0.00 0.00 0.00 0.00 0.00 0.00 0.00 0.00 0.00 0.00 0.00 0.00 0.00 0.00 0.00 0.00 0.00 0.00 0.00 0.00 0.00 0.00 0.00 0.00 0.00 0.00 0.00 0.00 0.00 0.00 0.00 0.00 0.00 0.00
0.00 0.00 0.00 0.00 0.00 0.00 0.00 0.00 0.00 0.00 0.00 0.00 0.00 0.00 0.00 0.00 0.00 0.00 0.00 0.00 0.00 0.00 0.00 0.00 0.00 0.00 0.00 0.00 0.00 0.00 0.00 0.00 0.00 0.00 0.00 0.00 0.00 0.00 0.00 0.00 0.00 0.00 0.00 0.00
0.00 0.00 0.00 0.00 0.00 0.00 0.00 0.00 0.00 0.00 0.00 0.00 0.00 0.00 0.00 0.00 0.00 0.00 0.00 0.00 0.00 0.00 0.00 0.00 0.00 0.00 0.00 0.00 0.00 0.00 0.00 0.00 0.00 0.00 0.00 0.00 0.00 0.00 0.00 0.00 0.00 0.00 0.00 0.00
0.00 0.00 0.00 0.00 0.00 0.00 0.00 0.00 0.00 0.00 0.00 0.00 0.00 0.00 0.00 0.00 0.00 0.00 0.00 0.00 0.00 0.00 0.00 0.00 0.00 0.00 0.00 0.00 0.00 0.00 0.00 0.00 0.00 0.00 0.00 0.00 0.00 0.00 0.00 0.00 0.00 0.00 0.00 0.00
0.00 0.00 0.00 0.00 0.00 0.00 0.00 0.00 0.00 0.00 0.00 0.00 0.00 0.00 0.00 0.00 0.00 0.00 0.00 0.00 0.00 0.00 0.00 0.00 0.00 0.00 0.00 0.00 0.00 0.00 0.00 0.00 0.00 0.00 0.00 0.00 0.00 0.00 0.00 0.00 0.00 0.00 0.00 0.00
0.00 0.00 0.00 0.00 0.00 0.00 0.00 0.00 0.00 0.00 0.00 0.00 0.00 0.00 0.00 0.00 0.00 0.00 0.00 0.00 0.00 0.00 0.00 0.00 0.00 0.00 0.00 0.00 0.00 0.00 0.00 0.00 0.00 0.00 0.00 0.00 0.00 0.00 0.00 0.00 0.00 0.00 0.00 0.00
0.00 0.00 0.00 0.00 0.00 0.00 0.00 0.00 0.00 0.00 0.00 0.00 0.00 0.00 0.00 0.00 0.00 0.00 0.00 0.00 0.00 0.00 0.00 0.00 0.00 0.00 0.00 0.00 0.00 0.00 0.00 0.00 0.00 0.00 0.00 0.00 0.00 0.00 0.00 0.00 0.00 0.00 0.00 0.00
0.00 0.00 0.00 0.00 0.00 0.00 0.00 0.00 0.00 0.00 0.00 0.00 0.00 0.00 0.00 0.00 0.00 0.00 0.00 0.00 0.00 0.00 0.00 0.00 0.00 0.00 0.00 0.00 0.00 0.00 0.00 0.00 0.00 0.00 0.00 0.00 0.00 0.00 0.00 0.00 0.00 0.00 0.00 0.00
0.00 0.00 0.00 0.00 0.00 0.00 0.00 0.00 0.00 0.00 0.00 0.00 0.00 0.00 0.00 0.00 0.00 0.00 0.00 0.00 0.00 0.00 0.00 0.00 0.00 0.00 0.00 0.00 0.00 0.00 0.00 0.00 0.00 0.00 0.00 0.00 0.00 0.00 0.00 0.00 0.00 0.00 0.00 0.00
0.00 0.00 0.00 0.00 0.00 0.00 0.00 0.00 0.00 0.00 0.00 0.00 0.00 0.00 0.00 0.00 0.00 0.00 0.00 0.00 0.00 0.00 0.00 0.00 0.00 0.00 0.00 0.00 0.00 0.00 0.00 0.00 0.00 0.00 0.00 0.00 0.00 0.00 0.00 0.00 0.00 0.00 0.00 0.00
0.00 0.00 0.00 0.00 0.00 0.00 0.00 0.00 0.00 0.00 0.00 0.00 0.00 0.00 0.00 0.00 0.00 0.00 0.00 0.00 0.00 0.00 0.00 0.00 0.00 0.00 0.00 0.00 0.00 0.00 0.00 0.00 0.00 0.00 0.00 0.00 0.00 0.00 0.00 0.00 0.00 0.00 0.00 0.00
MSLP
1010.71 1009.57 1009.30 1008.99 1009.03 1009.20 1010.16 1011.30 1011.98 1012.70 1013.73 1015.34 1016.56 1017.44 1018.29 1019.02 1019.62 1020.18 1020.71 1020.89 1021.11 1021.31 1021.09 1021.01 1020.64 1020.52 1019.84 1019.22 1019.19 1018.82 1018.16 1017.38 1016.96 1016.64 1015.86 1015.29 1014.51 1013.75 1013.17 1012.43 1011.53 1010.62 1009.98 1008.83
1011.23 1010.37 1009.64 1009.38 1009.14 1009.49 1010.21 1011.10 1012.32 1013.15 1014.94 1016.15 1017.47 1018.30 1019.00 1019.59 1020.29 1020.70 1021.04 1021.39 1021.62 1021.71 1021.58 1021.47 1021.10 1020.67 1020.38 1020.23 1019.78 1019.22 1018.58 1017.91 1017.64 1017.22 1016.74 1016.09 1015.16 1014.55 1014.15 1013.07 1012.06 1011.79 1010.92 1009.60
1011.47 1011.04 1010.76 1010.47 1009.93 1010.04 1011.31 1012.30 1013.07 1014.09 1014.85 1016.84 1018.35 1019.23 1020.02 1020.64 1021.07 1021.43 1021.92 1022.18 1022.33 1022.35 1022.20 1021.94 1021.68 1021.28 1021.06 1020.79 1020.33 1019.57 1019.07 1018.61 1018.31 1017.99 1017.47 1016.69 1016.01 1015.37 1014.80 1013.96 1013.70 1013.23 1011.85 1010.72
1012.01 1011.66 1011.57 1011.00 1010.73 1010.79 1012.11 1013.77 1014.16 1014.80 1016.10 1017.46 1018.97 1020.37 1021.05 1021.58 1021.90 1022.38 1022.85 1023.02 1023.02 1022.94 1022.71 1022.54 1022.31 1022.07 1021.88 1021.27 1020.59 1019.96 1019.53 1019.40 1019.13 1018.80 1018.31 1017.87 1016.97 1016.24 1015.86 1015.37 1014.96 1014.32 1013.14 1012.07
1012.44 1012.13 1012.13 1011.84 1012.00 1012.43 1012.87 1015.25 1015.74 1016.27 1017.65 1018.94 1020.16 1020.94 1021.90 1022.40 1022.77 1023.13 1023.29 1023.52 1023.55 1023.52 1023.48 1023.36 1023.06 1022.51 1021.93 1021.29 1020.87 1020.51 1020.39 1020.30 1020.09 1019.82 1019.39 1018.81 1018.07 1017.60 1016.89 1016.45 1016.02 1015.38 1014.41 1013.16
1012.50 1012.52 1012.66 1012.58 1012.50 1012.91 1013.58 1015.75 1016.68 1017.33 1018.29 1019.44 1020.54 1021.49 1022.43 1022.94 1023.34 1023.63 1023.78 1023.86 1023.97 1024.01 1023.95 1023.63 1023.25 1022.70 1022.07 1021.73 1021.49 1021.20 1021.36 1021.16 1020.77 1020.50 1020.15 1019.70 1019.30 1018.89 1018.07 1017.50 1017.37 1016.63 1015.56 1014.76
1012.60 1013.06 1013.37 1013.17 1013.23 1013.71 1015.19 1016.91 1017.36 1018.23 1019.13 1019.94 1020.80 1021.58 1022.47 1023.32 1023.72 1023.87 1023.99 1024.20 1024.38 1024.33 1024.20 1023.98 1023.52 1023.12 1022.66 1022.38 1022.14 1022.06 1021.87 1021.66 1021.55 1021.18 1020.81 1020.71 1020.25 1019.67 1018.96 1018.42 1018.01 1017.42 1016.66 1015.88
1013.27 1014.04 1014.47 1014.21 1014.37 1015.10 1016.29 1017.18 1018.06 1019.05 1019.78 1020.42 1021.33 1022.39 1023.26 1023.86 1024.16 1024.29 1024.28 1024.54 1024.69 1024.49 1024.41 1024.29 1023.94 1023.61 1023.44 1023.12 1023.04 1022.76 1022.37 1022.18 1022.06 1021.81 1021.75 1021.43 1021.04 1020.58 1019.83 1019.25 1018.75 1018.35 1017.67 1016.96
1013.84 1014.32 1014.80 1015.02 1015.25 1015.80 1016.45 1017.55 1018.73 1019.65 1020.64 1021.14 1022.04 1023.03 1023.89 1024.48 1024.87 1024.83 1024.91 1025.06 1024.92 1024.90 1025.05 1025.04 1024.87 1024.69 1024.32 1023.94 1023.48 1023.40 1023.15 1022.87 1022.57 1022.49 1022.38 1022.12 1021.78 1021.18 1020.45 1020.04 1019.53 1019.23 1018.76 1018.13
1014.03 1015.13 1015.45 1015.89 1016.16 1016.64 1017.34 1018.25 1019.15 1020.07 1020.96 1021.86 1022.62 1023.60 1024.31 1024.88 1025.26 1025.50 1025.61 1025.69 1025.75 1025.78 1026.00 1026.11 1025.89 1025.45 1025.19 1024.97 1024.44 1024.02 1023.70 1023.41 1023.14 1023.01 1022.88 1022.71 1022.38 1021.89 1021.56 1021.07 1020.62 1020.19 1019.53 1019.05
1014.44 1015.34 1015.98 1016.50 1016.88 1017.40 1018.20 1018.91 1019.73 1020.54 1021.34 1022.26 1023.04 1023.84 1024.57 1025.21 1025.73 1026.04 1026.31 1026.52 1026.61 1026.83 1026.91 1026.90 1026.75 1026.55 1026.28 1025.74 1025.08 1024.61 1024.32 1024.18 1023.92 1023.59 1023.28 1023.06 1022.85 1022.54 1022.35 1022.11 1021.66 1021.20 1020.58 1020.20
1013.12 1013.84 1014.78 1016.03 1017.01 1017.70 1018.49 1019.32 1020.16 1020.87 1021.86 1022.65 1023.20 1023.82 1024.73 1025.46 1025.92 1026.40 1026.89 1027.22 1027.44 1027.63 1027.83 1028.04 1027.94 1027.66 1027.12 1026.47 1025.94 1025.46 1025.09 1024.79 1024.51 1024.21 1023.95 1023.67 1023.55 1023.30 1023.00 1022.82 1022.49 1022.15 1021.58 1021.12
1012.81 1013.82 1014.64 1015.93 1017.00 1017.89 1018.70 1019.53 1020.45 1021.18 1021.90 1022.56 1023.46 1024.05 1024.82 1025.48 1026.20 1026.78 1027.45 1027.88 1028.21 1028.63 1028.90 1029.01 1028.89 1028.57 1028.04 1027.37 1026.79 1026.19 1025.87 1025.62 1025.41 1025.19 1025.01 1024.83 1024.57 1024.31 1024.10 1023.79 1023.38 1022.89 1022.54 1022.03
1013.41 1014.30 1015.97 1016.45 1017.10 1018.00 1018.82 1019.67 1020.54 1021.43 1022.19 1022.88 1023.53 1024.35 1025.00 1025.73 1026.52 1027.15 1027.59 1028.18 1028.79 1029.36 1029.73 1029.81 1029.56 1029.29 1028.65 1027.79 1027.12 1026.83 1026.64 1026.54 1026.51 1026.35 1026.10 1025.86 1025.64 1025.41 1025.12 1024.94 1024.57 1024.12 1023.45 1023.05
1014.05 1014.10 1015.07 1016.21 1017.29 1018.10 1018.83 1019.69 1020.66 1021.58 1022.38 1023.22 1023.93 1024.55 1025.41 1026.10 1026.86 1027.42 1028.00 1028.79 1029.49 1029.94 1030.22 1030.09 1029.92 1029.56 1028.79 1028.15 1027.77 1027.77 1027.58 1027.46 1027.22 1026.99 1026.75 1026.52 1026.29 1026.20 1026.02 1025.84 1025.58 1025.32 1024.82 1024.37
1014.47 1014.97 1015.70 1016.44 1017.22 1018.11 1018.90 1019.79 1020.67 1021.68 1022.56 1023.39 1024.30 1025.10 1025.93 1026.72 1027.54 1028.40 1029.01 1029.48 1030.05 1030.59 1030.68 1030.55 1030.17 1029.66 1029.03 1028.55 1028.37 1028.22 1028.11 1028.01 1027.87 1027.74 1027.53 1027.37 1027.18 1027.01 1026.84 1026.64 1026.35 1026.04 1025.65 1025.43
1014.87 1015.68 1016.04 1016.72 1017.44 1018.25 1019.06 1019.85 1020.71 1021.77 1022.80 1023.75 1024.74 1025.64 1026.45 1027.49 1028.59 1029.48 1030.03 1030.38 1030.53 1030.79 1030.76 1030.59 1030.39 1029.95 1029.64 1029.28 1029.00 1028.95 1028.82 1028.77 1028.64 1028.48 1028.41 1028.24 1028.04 1027.88 1027.73 1027.54 1027.28 1026.90 1026.43 1026.05
1014.71 1015.52 1016.17 1016.91 1017.63 1018.44 1019.40 1020.30 1021.20 1022.26 1023.26 1024.15 1025.22 1026.25 1027.20 1028.31 1029.38 1030.29 1030.47 1030.59 1030.86 1030.91 1030.72 1030.53 1030.45 1030.26 1030.08 1029.69 1029.48 1029.46 1029.46 1029.35 1029.15 1029.09 1028.90 1028.82 1028.58 1028.33 1028.25 1028.21 1028.05 1027.74 1027.19 1026.65
1015.04 1015.82 1016.73 1017.39 1018.07 1018.87 1019.82 1020.86 1021.88 1022.91 1024.04 1024.95 1026.01 1027.08 1027.96 1028.99 1029.80 1030.30 1030.41 1030.70 1031.20 1031.63 1031.34 1030.50 1030.56 1030.51 1030.32 1029.89 1029.92 1029.87 1029.85 1029.84 1029.73 1029.57 1029.47 1029.32 1029.29 1029.03 1028.95 1028.87 1028.57 1028.22 1027.71 1027.30
1015.93 1016.46 1017.18 1018.18 1018.89 1019.62 1020.86 1021.82 1022.60 1023.68 1024.74 1025.63 1026.78 1027.76 1028.67 1029.50 1029.78 1030.17 1030.37 1031.02 1031.17 1031.06 1030.81 1030.79 1030.83 1030.80 1030.56 1030.23 1030.38 1030.29 1030.38 1030.41 1030.33 1030.32 1030.25 1030.08 1030.07 1029.98 1029.55 1029.18 1028.91 1028.63 1028.31 1027.79
1016.72 1017.44 1018.09 1018.90 1019.98 1020.72 1021.49 1022.41 1023.24 1024.31 1025.37 1026.10 1026.86 1027.80 1028.56 1029.35 1029.71 1030.07 1030.58 1030.82 1030.74 1030.79 1030.94 1031.05 1031.16 1031.06 1030.62 1030.77 1030.43 1030.73 1030.91 1031.07 1031.13 1031.21 1031.35 1031.35 1030.94 1030.57 1030.33 1030.11 1029.75 1029.27 1028.76 1028.32
1017.66 1018.33 1019.05 1019.74 1020.61 1021.61 1022.37 1023.07 1023.90 1024.81 1025.72 1026.53 1027.23 1027.95 1028.68 1029.30 1029.65 1030.04 1030.30 1030.33 1030.37 1030.65 1030.93 1031.22 1031.44 1031.60 1031.27 1031.03 1030.98 1031.39 1031.73 1031.93 1032.11 1032.15 1032.18 1031.97 1031.84 1031.77 1031.52 1031.09 1030.65 1030.09 1029.63 1029.07
1018.50 1019.10 1019.73 1020.50 1021.25 1022.13 1023.00 1023.70 1024.44 1025.07 1025.89 1026.62 1027.33 1027.97 1028.27 1028.61 1028.89 1029.37 1029.88 1030.10 1030.41 1030.74 1031.10 1031.65 1031.74 1031.79 1031.77 1031.70 1031.98 1032.38 1032.67 1032.88 1033.05 1033.10 1033.04 1032.91 1032.70 1032.53 1032.42 1032.18 1031.76 1031.20 1030.50 1029.88
1019.15 1019.86 1020.49 1021.20 1021.86 1022.61 1023.44 1024.30 1024.85 1025.53 1026.10 1026.72 1027.25 1027.71 1027.95 1028.35 1028.78 1029.11 1029.29 1029.95 1030.45 1030.87 1031.48 1031.78 1031.80 1032.04 1032.38 1032.76 1033.02 1033.22 1033.53 1033.79 1033.93 1033.92 1033.87 1033.78 1033.72 1033.66 1033.41 1033.08 1032.64 1032.10 1031.46 1030.83
1019.55 1020.20 1020.86 1021.51 1022.12 1022.84 1023.56 1024.25 1025.07 1025.80 1026.37 1026.88 1027.33 1027.49 1027.53 1027.95 1028.38 1029.31 1029.64 1030.16 1030.67 1031.29 1031.86 1032.02 1032.27 1032.80 1033.28 1033.69 1033.82 1034.04 1034.40 1034.70 1034.88 1034.71 1034.78 1034.79 1034.79 1034.60 1034.35 1033.99 1033.52 1032.93 1032.20 1031.43
1019.82 1020.37 1020.93 1021.40 1021.94 1022.69 1023.46 1024.23 1024.98 1025.69 1026.22 1026.94 1027.42 1027.70 1027.91 1028.30 1028.89 1029.44 1030.04 1030.63 1031.24 1031.77 1032.18 1032.24 1032.96 1033.60 1033.93 1033.96 1034.34 1034.71 1034.95 1034.88 1034.96 1034.95 1035.25 1035.41 1035.21 1035.22 1035.11 1034.33 1033.94 1033.35 1032.64 1032.25
1020.02 1020.52 1021.04 1021.60 1022.19 1022.71 1023.31 1023.97 1024.70 1025.47 1026.00 1026.60 1027.40 1028.10 1028.27 1028.87 1029.47 1029.95 1030.62 1031.30 1031.83 1032.33 1032.84 1033.05 1033.46 1033.84 1034.15 1034.46 1034.71 1035.10 1035.19 1035.33 1035.26 1035.30 1035.73 1035.72 1035.63 1035.59 1035.24 1034.88 1034.26 1033.78 1033.25 1032.76
Thickness
5501 5509 5508 5510 5512 5514 5507 5498 5484 5494 5479 5461 5448 5437 5426 5420 5416 5407 5401 5401 5398 5396 5400 5400 5404 5405 5414 5419 5416 5418 5423 5428 5430 5432 5439 5443 5450 5457 5462 5467 5475 5480 5481 5486
5469 5497 5503 5503 5506 5504 5505 5499 5476 5476 5456 5450 5435 5425 5417 5410 5400 5394 5392 5389 5389 5387 5388 5389 5393 5396 5398 5398 5402 5406 5410 5416 5417 5419 5421 5426 5434 5440 5443 5451 5459 5458 5461 5469
5468 5475 5477 5471 5488 5492 5475 5466 5470 5455 5459 5432 5414 5408 5401 5394 5391 5385 5377 5374 5372 5372 5373 5374 5376 5379 5380 5382 5385 5392 5396 5401 5403 5404 5407 5413 5418 5423 5427 5433 5433 5434 5444 5451
5446 5456 5453 5460 5471 5478 5455 5437 5449 5443 5433 5424 5404 5388 5382 5378 5376 5371 5364 5360 5359 5358 5358 5357 5357 5358 5359 5365 5372 5378 5382 5384 5386 5388 5391 5393 5400 5406 5407 5410 5412 5415 5424 5431
5432 5445 5447 5455 5455 5445 5444 5419 5421 5426 5409 5394 5383 5380 5369 5364 5360 5354 5353 5346 5344 5343 5341 5339 5339 5344 5350 5356 5361 5365 5366 5367 5369 5371 5373 5377 5382 5384 5389 5391 5394 5398 5405 5415
5425 5436 5425 5428 5446 5443 5437 5409 5403 5405 5405 5390 5379 5376 5360 5354 5349 5345 5341 5340 5337 5333 5331 5333 5336 5341 5347 5351 5353 5357 5356 5357 5361 5363 5365 5367 5369 5371 5375 5378 5376 5381 5389 5394
5432 5422 5422 5432 5439 5436 5415 5413 5394 5386 5377 5384 5380 5356 5353 5345 5343 5341 5341 5336 5332 5331 5331 5332 5335 5338 5342 5345 5346 5348 5350 5351 5352 5355 5358 5356 5357 5361 5364 5364 5365 5368 5372 5376
5423 5407 5416 5410 5423 5422 5392 5388 5382 5369 5365 5361 5357 5349 5341 5336 5332 5333 5335 5331 5329 5330 5330 5332 5333 5336 5337 5339 5338 5341 5344 5346 5346 5348 5349 5350 5351 5351 5356 5358 5357 5356 5360 5363
5404 5397 5392 5396 5393 5391 5390 5382 5376 5364 5358 5354 5345 5338 5330 5326 5321 5325 5328 5326 5329 5329 5328 5327 5327 5327 5330 5332 5336 5337 5339 5342 5344 5343 5342 5343 5343 5347 5351 5352 5353 5352 5352 5354
5393 5387 5387 5386 5388 5387 5382 5373 5370 5363 5357 5348 5338 5324 5323 5320 5320 5320 5322 5323 5323 5323 5321 5319 5320 5323 5325 5327 5331 5334 5336 5338 5338 5338 5336 5336 5336 5339 5339 5340 5341 5342 5345 5346
5387 5382 5382 5380 5379 5376 5371 5367 5361 5355 5349 5340 5332 5327 5325 5321 5318 5314 5314 5316 5317 5315 5314 5314 5316 5317 5318 5322 5326 5330 5331 5331 5331 5332 5332 5332 5331 5331 5330 5329 5330 5330 5333 5334
5389 5396 5390 5380 5374 5371 5364 5359 5351 5347 5341 5337 5334 5329 5324 5318 5317 5315 5312 5310 5309 5309 5308 5307 5308 5310 5313 5316 5319 5322 5324 5325 5326 5326 5325 5324 5323 5321 5319 5318 5318 5318 5320 5320
5390 5392 5384 5376 5371 5366 5361 5354 5347 5344 5339 5335 5330 5327 5322 5318 5314 5313 5308 5305 5302 5299 5298 5298 5299 5301 5304 5309 5312 5315 5317 5318 5317 5315 5314 5312 5310 5308 5304 5303 5304 5305 5305 5306
5385 5380 5368 5368 5365 5362 5357 5351 5347 5340 5335 5332 5328 5324 5322 5318 5314 5310 5308 5304 5300 5296 5293 5291 5292 5294 5297 5302 5306 5306 5305 5304 5301 5300 5299 5297 5295 5293 5289 5287 5285 5284 5287 5287
5379 5382 5375 5369 5362 5359 5355 5349 5342 5336 5332 5327 5325 5323 5318 5314 5311 5308 5305 5301 5297 5293 5290 5290 5289 5291 5294 5297 5298 5295 5294 5291 5289 5287 5286 5283 5281 5278 5275 5270 5265 5261 5262 5263
5372 5369 5365 5362 5359 5354 5349 5344 5340 5335 5329 5325 5320 5316 5312 5308 5304 5299 5296 5296 5293 5288 5286 5281 5287 5286 5290 5291 5290 5288 5285 5282 5279 5276 5273 5270 5267 5264 5262 5257 5254 5251 5245 5240
5358 5355 5357 5354 5350 5346 5343 5340 5337 5331 5324 5319 5313 5309 5306 5301 5294 5289 5284 5283 5284 5281 5278 5279 5278 5280 5281 5281 5280 5276 5272 5268 5263 5261 5256 5253 5249 5245 5242 5238 5235 5231 5228 5222
5355 5350 5348 5345 5342 5339 5334 5332 5328 5324 5318 5313 5306 5300 5295 5290 5285 5279 5275 5276 5276 5277 5274 5274 5274 5273 5271 5270 5268 5264 5258 5255 5252 5247 5243 5237 5234 5230 5225 5220 5215 5210 5204 5200
5341 5336 5332 5333 5332 5331 5329 5323 5317 5310 5303 5300 5296 5290 5286 5281 5277 5272 5273 5273 5267 5266 5267 5270 5270 5265 5261 5258 5255 5251 5246 5241 5237 5232 5227 5221 5215 5211 5203 5195 5190 5183 5178 5173
5317 5317 5317 5315 5317 5316 5309 5305 5304 5299 5294 5290 5285 5281 5277 5270 5269 5269 5269 5267 5265 5264 5263 5262 5259 5255 5250 5247 5243 5239 5233 5226 5222 5216 5210 5204 5196 5190 5184 5177 5168 5158 5147 5140
5300 5300 5302 5303 5299 5299 5299 5298 5295 5291 5286 5285 5282 5278 5275 5268 5266 5266 5266 5266 5261 5259 5257 5253 5249 5244 5240 5235 5232 5224 5218 5211 5204 5197 5189 5182 5174 5168 5160 5151 5143 5134 5126 5118
5293 5292 5292 5293 5292 5289 5290 5289 5287 5283 5279 5276 5272 5269 5267 5264 5261 5260 5260 5260 5257 5253 5249 5243 5238 5233 5229 5224 5218 5210 5202 5194 5186 5178 5170 5163 5154 5143 5133 5124 5116 5108 5100 5094
5290 5290 5288 5287 5286 5283 5281 5280 5278 5278 5274 5272 5269 5265 5267 5267 5266 5263 5256 5254 5250 5245 5240 5233 5227 5222 5217 5210 5202 5193 5184 5176 5166 5158 5149 5140 5131 5122 5110 5098 5089 5082 5077 5070
5289 5287 5285 5281 5280 5278 5275 5272 5272 5269 5267 5266 5264 5263 5265 5262 5257 5256 5254 5247 5241 5236 5229 5222 5216 5210 5203 5194 5185 5176 5168 5158 5149 5140 5131 5121 5109 5098 5087 5075 5066 5058 5051 5044
5289 5285 5281 5280 5279 5276 5273 5271 5267 5265 5264 5264 5263 5261 5263 5260 5254 5247 5243 5237 5232 5225 5216 5211 5204 5196 5187 5178 5170 5161 5151 5141 5131 5122 5111 5099 5087 5076 5065 5056 5047 5039 5031 5022
5288 5285 5282 5282 5279 5275 5272 5269 5265 5262 5261 5255 5252 5253 5251 5249 5244 5239 5233 5227 5220 5213 5206 5197 5189 5180 5172 5164 5155 5145 5135 5125 5115 5105 5093 5082 5070 5059 5049 5040 5031 5022 5013 5003
5286 5283 5281 5278 5274 5273 5270 5267 5263 5259 5254 5252 5250 5242 5242 5237 5233 5228 5221 5214 5206 5199 5191 5183 5175 5167 5158 5149 5139 5129 5119 5109 5099 5088 5077 5066 5055 5044 5035 5027 5017 5007 4997 4987